[[{"header":{"parameterUnit":"m.s-1","parameterCategory":1,"la1":30.2991,"la2":30.254,"lo1":-89.0895,"lo2":-89.0444,"dy":0.0017,"dx":0.0017,"nx":28,"ny":28,"refTime":"2025-12-24T09:00:00:Z","depth":0,"parameterNumber":2,"parameterNumberName":"U-component_of_WINDS"},"data":[0,0,0,0,0,0,0,0,0,0,0,0,0,0,0,0,0,0,0,0,0,0,0,0,0,0,0,0,0,0,0,0,0,0,0,0,0,0,0,0,0,0,0,0,0,0,0,0,0,0,0,0,0,0,0,0,0,0,0.1037,0.1038,0,0.1068,0.1068,0.1068,0.1106,0.1106,0.1107,0.1108,0.1137,0.1137,0.1137,0,0,0,0,0,0,0,0,0,0,0,0,0,0.1009,0.101,0.1037,0.1038,0.1038,0.1068,0.1068,0.1068,0.1106,0.1106,0.1107,0.1108,0.1137,0.1137,0.1137,0,0,0,0,0,0,0,0,0,0,0,0,0,0.1029,0.101,0.1037,0.106,0.1063,0.1067,0.1068,0.1069,0.1106,0.1106,0.1107,0.1108,0.1137,0.1137,0.1137,0.1122,0,0,0.1139,0.1139,0,0,0,0,0,0,0,0,0.1028,0.103,0.1056,0.1059,0.1061,0.1084,0.1069,0.1086,0.1105,0.1089,0.1108,0.1109,0.1118,0.112,0.1124,0.1123,0.1124,0.1139,0.1139,0.1139,0.1139,0,0,0,0,0,0,0,0.1026,0.1029,0.1049,0.1057,0.106,0.1068,0.1072,0.1072,0.1098,0.1091,0.1093,0.1097,0.112,0.1124,0.1125,0.1125,0.1139,0.1139,0.1139,0.1139,0.1111,0.111,0,0,0,0,0,0,0.1022,0.1027,0.1048,0.105,0.1046,0.1068,0.1072,0.1076,0.1099,0.1103,0.1096,0.1098,0.1123,0.1125,0.1126,0.1108,0.1139,0.1139,0.1139,0.1112,0.111,0.1109,0,0,0,0,0,0,0.1021,0.1023,0.1047,0.1039,0.1043,0.1068,0.1071,0.1076,0.108,0.1102,0.1107,0.1095,0.1123,0.1126,0.1122,0.111,0.1139,0.114,0.1113,0.1111,0.111,0.1072,0,0,0,0,0,0,0.102,0.1023,0.1018,0.1039,0.1043,0.1043,0.107,0.1076,0.108,0.1084,0.1103,0.1107,0.1124,0.1122,0.1123,0.1111,0.114,0.1114,0.1112,0.111,0.1075,0.1069,0.1065,0,0,0,0,0,0.1019,0.1006,0.1017,0.1019,0.1038,0.1042,0.1045,0.1066,0.1079,0.1074,0.1088,0.1106,0.1111,0.1121,0.1122,0.111,0.1115,0.1113,0.111,0.1077,0.107,0.1065,0,0,0,0,0,0,0.0982,0.1009,0.1022,0.1016,0.1026,0.1049,0.1043,0.1059,0.1066,0.1068,0.1094,0.1098,0.1091,0.11,0.1111,0.1095,0.1115,0.1113,0.1089,0.1084,0.1079,0.1076,0.114,0,0,0,0,0,0.0973,0.0975,0.0999,0.0991,0.0996,0.1018,0.1021,0.1036,0.1048,0.1053,0.1067,0.1077,0.1081,0.1083,0.1088,0.1076,0.108,0.1069,0.1064,0.106,0.1058,0.1051,0.1045,0.1102,0.1102,0.1102,0,0,0.0954,0.097,0.097,0.0984,0.0994,0.0995,0.1022,0.1022,0.1022,0.1053,0.105,0.1061,0.1074,0.1066,0.1063,0.1074,0.1043,0.1057,0.1054,0.1054,0.1048,0.1042,0.1038,0.1101,0.1101,0.1101,0,0,0.0921,0.0933,0.0927,0.0937,0.0952,0.0967,0.0965,0.0985,0.0993,0.0991,0.1014,0.1014,0.1021,0.1029,0.1034,0.1002,0.1019,0.1003,0.0978,0.0971,0.0967,0.0963,0.095,0.0945,0.1001,0.1001,0.1001,0,0.0896,0.0899,0.0922,0.0921,0.0925,0.0953,0.0946,0.0955,0.097,0.0972,0.0984,0.0992,0.1003,0.0996,0.0989,0.0992,0.099,0.1001,0.0966,0.0962,0.0959,0.0947,0.0942,0.0999,0.0999,0.0999,0.0999,0,0.0867,0.0868,0.0861,0.0876,0.088,0.0876,0.0897,0.0899,0.0913,0.0926,0.0923,0.0937,0.0945,0.0945,0.0959,0.094,0.0946,0.0961,0.0982,0.0951,0.094,0.0936,0.0996,0.0997,0.0997,0.0998,0,0,0.0811,0.0838,0.0834,0.0841,0.0859,0.086,0.0857,0.0864,0.0864,0.0874,0.0871,0.0875,0.0889,0.0895,0.091,0.0904,0.0876,0.092,0.0921,0.091,0.0854,0.0841,0.0836,0.0888,0.0887,0.0886,0.0853,0,0.078,0.0776,0.0796,0.0786,0.0787,0.0813,0.081,0.082,0.0832,0.0834,0.0847,0.0849,0.0869,0.0872,0.0867,0.0881,0.0865,0.0884,0.0884,0.0883,0.0878,0.0831,0.0817,0.0785,0.0849,0.0848,0.0848,0,0.0743,0.075,0.0741,0.0758,0.0759,0.0756,0.0764,0.0766,0.0778,0.0787,0.0792,0.081,0.0807,0.0827,0.0822,0.0834,0.0835,0.0842,0.0841,0.0841,0.0863,0.0828,0.0775,0.077,0.0841,0.0842,0.0842,0,0.0701,0.0709,0.0704,0.0708,0.0729,0.0726,0.0735,0.0747,0.075,0.0757,0.0759,0.0765,0.0768,0.0772,0.079,0.0803,0.0782,0.0805,0.0789,0.0788,0.0782,0.0782,0.0728,0.0785,0.0785,0.0785,0.0785,0,0.0663,0.0656,0.0685,0.0682,0.0674,0.0697,0.0688,0.0699,0.071,0.0709,0.0732,0.073,0.0754,0.0755,0.0769,0.0762,0.0764,0.077,0.0773,0.0767,0.0766,0.0767,0.077,0.0784,0.0784,0.0785,0.0785,0,0.0615,0.0634,0.063,0.065,0.0655,0.0648,0.0665,0.0662,0.0675,0.0673,0.0674,0.0695,0.0696,0.0715,0.0721,0.073,0.0717,0.0726,0.0713,0.0715,0.0698,0.0698,0.0641,0.0634,0.0697,0.0696,0.0696,0,0.0589,0.0584,0.0603,0.0604,0.0612,0.0613,0.0616,0.0638,0.064,0.0652,0.0647,0.0651,0.0655,0.0656,0.0671,0.0675,0.0683,0.0662,0.0684,0.0677,0.0681,0.068,0.0679,0.0658,0.0657,0.0656,0.0656,0,0.0541,0.055,0.0554,0.056,0.0563,0.0569,0.0577,0.0576,0.06,0.0601,0.0603,0.0606,0.0612,0.0614,0.0621,0.0629,0.0645,0.0649,0.0645,0.0638,0.063,0.0633,0.0699,0.065,0.0651,0.0651,0.0651,0.0651,0.0502,0.0498,0.0511,0.0514,0.0522,0.0528,0.0526,0.0539,0.0541,0.0547,0.056,0.056,0.057,0.0581,0.0587,0.0587,0.0597,0.0592,0.0591,0.0589,0.0584,0.0631,0.0588,0.0588,0.0589,0.0589,0.0589,0,0.0453,0.0463,0.0465,0.0475,0.0477,0.0493,0.0502,0.0502,0.0502,0.051,0.0514,0.0515,0.0517,0.0532,0.0536,0.0533,0.054,0.0533,0.0533,0.0534,0.0576,0.0578,0.0526,0.0526,0.0526,0.0526,0.0526,0.0526,0.0428,0.0422,0.0433,0.043,0.044,0.044,0.0443,0.0448,0.0456,0.0456,0.0458,0.0468,0.0479,0.0484,0.0486,0.0491,0.049,0.048,0.0486,0.0525,0.0531,0.0537,0.0539,0.048,0.048,0.0444,0.0444,0.0444]},{"header":{"parameterUnit":"m.s-1","parameterCategory":1,"la1":30.2991,"la2":30.254,"lo1":-89.0895,"lo2":-89.0444,"dy":0.0017,"dx":0.0017,"nx":28,"ny":28,"refTime":"2025-12-24T09:00:00:Z","depth":0,"parameterNumber":3,"parameterNumberName":"V-component_of_WINDS"},"data":[0,0,0,0,0,0,0,0,0,0,0,0,0,0,0,0,0,0,0,0,0,0,0,0,0,0,0,0,0,0,0,0,0,0,0,0,0,0,0,0,0,0,0,0,0,0,0,0,0,0,0,0,0,0,0,0,0,0,0.775,0.775,0,0.774,0.774,0.774,0.7762,0.7762,0.7763,0.7764,0.775,0.7749,0.7748,0,0,0,0,0,0,0,0,0,0,0,0,0,0.7783,0.7782,0.775,0.775,0.775,0.774,0.774,0.774,0.7762,0.7763,0.7763,0.7764,0.7751,0.775,0.7748,0,0,0,0,0,0,0,0,0,0,0,0,0,0.7771,0.7782,0.775,0.7759,0.776,0.774,0.774,0.774,0.7761,0.7763,0.7764,0.7765,0.7751,0.775,0.7748,0.7718,0,0,0.7744,0.7743,0,0,0,0,0,0,0,0,0.7771,0.7769,0.7758,0.7759,0.7759,0.7753,0.7747,0.7732,0.7761,0.7761,0.7764,0.7765,0.775,0.7749,0.7745,0.7717,0.7717,0.7743,0.7743,0.7742,0.7741,0,0,0,0,0,0,0,0.7772,0.777,0.7746,0.7758,0.7759,0.7763,0.7762,0.7744,0.775,0.7761,0.7762,0.7761,0.7751,0.7746,0.7745,0.7716,0.7744,0.7742,0.7741,0.7741,0.7663,0.7662,0,0,0,0,0,0,0.7772,0.777,0.7746,0.7746,0.7768,0.7761,0.7761,0.7754,0.775,0.775,0.776,0.7762,0.7748,0.7746,0.7744,0.7708,0.7742,0.774,0.774,0.7664,0.7663,0.7661,0,0,0,0,0,0,0.7773,0.777,0.7747,0.7758,0.7756,0.776,0.7752,0.7753,0.7749,0.775,0.775,0.7755,0.7749,0.7746,0.7724,0.7708,0.774,0.7738,0.7665,0.7664,0.7662,0.7635,0,0,0,0,0,0,0.7774,0.777,0.7759,0.7758,0.7755,0.7728,0.7751,0.7753,0.7747,0.7749,0.7745,0.7745,0.775,0.7727,0.7723,0.7706,0.7737,0.7667,0.7665,0.7663,0.7637,0.7633,0.7628,0,0,0,0,0,0.7775,0.7751,0.7758,0.7755,0.7742,0.7727,0.7725,0.7732,0.7745,0.7734,0.7734,0.7745,0.771,0.7724,0.772,0.7703,0.7668,0.7665,0.7663,0.7639,0.7633,0.7629,0,0,0,0,0,0,0.7749,0.7751,0.7759,0.7735,0.7731,0.7731,0.7716,0.7726,0.7717,0.7719,0.7727,0.7726,0.7702,0.7701,0.7716,0.7673,0.7691,0.7688,0.7675,0.7669,0.7665,0.7665,0.7736,0,0,0,0,0,0.774,0.7729,0.7731,0.7709,0.7707,0.7712,0.7706,0.7712,0.7707,0.7705,0.7704,0.7698,0.7686,0.7678,0.7667,0.7638,0.7636,0.7624,0.7619,0.7616,0.7612,0.7596,0.759,0.7653,0.7653,0.7653,0,0,0.7722,0.7722,0.7714,0.7704,0.7702,0.7689,0.771,0.7696,0.7686,0.7703,0.7682,0.7681,0.7675,0.7649,0.7638,0.7647,0.7595,0.7612,0.7609,0.7608,0.7593,0.7587,0.7581,0.7651,0.7651,0.7652,0,0,0.7683,0.7682,0.7664,0.7661,0.7657,0.7661,0.7657,0.7655,0.7656,0.7636,0.7648,0.7636,0.7615,0.761,0.7605,0.7564,0.7573,0.756,0.7536,0.752,0.7515,0.7511,0.7496,0.749,0.7557,0.7557,0.7557,0,0.766,0.7642,0.7653,0.7637,0.7632,0.7648,0.7629,0.7626,0.7618,0.7613,0.7624,0.7598,0.7596,0.7569,0.7559,0.7554,0.7549,0.756,0.7516,0.7511,0.7507,0.7493,0.7487,0.7555,0.7555,0.7555,0.7556,0,0.7615,0.7602,0.7587,0.7581,0.7574,0.7557,0.7564,0.7555,0.7562,0.7564,0.7543,0.7541,0.7529,0.7523,0.7529,0.7497,0.7503,0.7515,0.7533,0.75,0.7486,0.748,0.7553,0.7553,0.7554,0.7554,0,0,0.7557,0.7558,0.7552,0.7549,0.7547,0.7536,0.752,0.751,0.7502,0.7496,0.7482,0.7464,0.7475,0.7469,0.7475,0.7461,0.7428,0.7474,0.7474,0.7465,0.7391,0.7382,0.7375,0.7435,0.7434,0.7433,0.7391,0,0.7517,0.749,0.7499,0.747,0.7458,0.7474,0.7459,0.7455,0.7457,0.7446,0.7448,0.7435,0.7451,0.7447,0.7435,0.7435,0.7413,0.7438,0.742,0.7419,0.7419,0.7368,0.7358,0.7319,0.7386,0.7385,0.7385,0,0.7467,0.7461,0.7431,0.7431,0.7426,0.7413,0.7405,0.7395,0.739,0.7393,0.7386,0.7395,0.7377,0.7397,0.7372,0.7389,0.7382,0.7381,0.738,0.7377,0.7399,0.7363,0.7306,0.73,0.7377,0.7377,0.7378,0,0.7427,0.7411,0.7391,0.7389,0.7388,0.7378,0.7377,0.7374,0.7368,0.736,0.7356,0.7346,0.734,0.7332,0.7337,0.7351,0.7311,0.7331,0.7311,0.731,0.73,0.7301,0.7241,0.7298,0.7298,0.7298,0.7298,0,0.7381,0.7362,0.7373,0.7361,0.734,0.735,0.7329,0.733,0.7327,0.7314,0.7327,0.7315,0.7323,0.7311,0.7315,0.7294,0.7291,0.7291,0.7292,0.7289,0.7289,0.7284,0.7286,0.7297,0.7297,0.7297,0.7298,0,0.7331,0.7339,0.7318,0.732,0.732,0.7304,0.7305,0.7293,0.7296,0.728,0.7277,0.7281,0.7268,0.7273,0.7258,0.7261,0.7233,0.7238,0.7234,0.7235,0.7214,0.7216,0.7148,0.7139,0.7203,0.7202,0.7202,0,0.7301,0.7287,0.7288,0.7281,0.7279,0.7268,0.7262,0.7271,0.7264,0.7259,0.7247,0.7235,0.7226,0.7203,0.7204,0.7193,0.7197,0.7174,0.7196,0.7193,0.7196,0.7196,0.7194,0.717,0.7169,0.7168,0.7168,0,0.7246,0.725,0.7241,0.7234,0.7226,0.722,0.7216,0.7209,0.7218,0.7209,0.7196,0.7189,0.7175,0.7162,0.7153,0.715,0.716,0.7162,0.7156,0.7152,0.715,0.715,0.7221,0.7163,0.7163,0.7163,0.7164,0.7164,0.7204,0.7192,0.7191,0.7181,0.7179,0.7174,0.7163,0.7165,0.7155,0.7145,0.7151,0.7136,0.7132,0.712,0.7116,0.7103,0.7112,0.7104,0.7102,0.71,0.7097,0.7154,0.7102,0.7102,0.7102,0.7102,0.7102,0,0.7149,0.7149,0.714,0.7133,0.7125,0.7137,0.7132,0.7124,0.711,0.7107,0.7098,0.7083,0.7071,0.7071,0.706,0.705,0.7054,0.7046,0.7046,0.7045,0.709,0.7095,0.7043,0.7043,0.7043,0.7043,0.7043,0.7043,0.7119,0.7099,0.7104,0.7083,0.7083,0.7069,0.7065,0.7061,0.7058,0.7041,0.7031,0.7033,0.703,0.7019,0.7008,0.7008,0.7003,0.6993,0.6995,0.7037,0.7042,0.7048,0.7053,0.6993,0.6993,0.6952,0.6951,0.6951]}]]